Flag for U.S.A. Weather past 2 weeks in Clearwater, Florida, U.S.A.

Now
68 °F

Partly cloudy.


Feels Like: 68 °F
Forecast: 64 / 71 °F
Wind: 12 mph from West

Location: St. Petersburg / Clearwater International Airport


UV Index: 7 (High)

Visibility: 10 mi


Pressure: 29.90 "Hg

Humidity: 84%

Dew point: 63 °F

Location of ClearwaterLocation

Historic Weather in Clearwater

°F

Clearwater temperature yesterday

Maximum temperature yesterday: 77 °F (at 1:53 PM)
Minimum temperature yesterday: 68 °F (at 2:53 PM)
Average temperature yesterday: 71 °F

Past Weeks' High & Low Weather Summary

 TemperatureHumidityPressure
High85 °F (Apr 7, 12:53 PM)97% (Apr 8, 9:53 AM)30.29 "Hg (Apr 8, 9:53 AM)
Low52 °F (Apr 16, 6:53 AM)34% (Apr 10, 4:53 PM)29.74 "Hg (Apr 8, 4:53 AM)
Average72 °F71%30.03 "Hg
* Reported Apr 4 5:53 AM — Apr 19 5:03 AM, Clearwater, Weather by CustomWeather, © 2014

Note: Actual official high and low records may vary slightly from our data, if they occured in-between our weather recording intervals... More about our weather records

Advertising

Historic Weather Conditions — Data for Previous 24 hours

 ConditionsComfort  
Time TempWeatherWind HumidityBarometerVisibility
5:03 AM
Apr 19
69 °FPassing clouds.10 mph84%29.89 "Hg10 mi
4:53 AM69 °FPassing clouds.13 mph87%29.89 "Hg10 mi
4:03 AM71 °FPassing clouds.13 mph87%29.89 "Hg10 mi
3:53 AM71 °FPartly cloudy.14 mph90%29.88 "Hg10 mi
2:53 AM71 °FOvercast.10 mph90%29.90 "Hg10 mi
1:53 AM70 °FMostly cloudy.9 mph93%29.92 "Hg10 mi
12:53 AM68 °FPassing clouds.8 mph93%29.93 "Hg10 mi
11:53 PM
Apr 18
68 °FClear.7 mph93%29.93 "Hg10 mi
10:53 PM68 °FPassing clouds.6 mph93%29.94 "Hg10 mi
9:53 PM68 °FPassing clouds.3 mph93%29.94 "Hg10 mi
8:53 PM69 °FScattered clouds.7 mph90%29.92 "Hg10 mi
7:53 PM69 °FPassing clouds.7 mph90%29.92 "Hg10 mi
6:53 PM70 °FPartly sunny.5 mph90%29.92 "Hg10 mi
5:53 PM70 °FMostly cloudy.9 mph90%29.95 "Hg10 mi
5:00 PM71 °FMostly cloudy.12 mph87%29.97 "Hg10 mi
3:53 PM70 °FMostly cloudy.12 mph90%29.98 "Hg10 mi
3:04 PM69 °FLight rain. Cloudy.10 mph90%30.01 "Hg10 mi
2:53 PM68 °FThundershowers. Cloudy.9 mph93%30.01 "Hg10 mi
1:53 PM77 °FLight rain. Broken clouds.10 mph79%30.00 "Hg10 mi
12:53 PM76 °FPartly sunny.8 mph85%30.00 "Hg10 mi
11:53 AM75 °FMostly cloudy.9 mph85%30.02 "Hg10 mi
10:53 AM73 °FMostly cloudy.9 mph90%30.01 "Hg10 mi
9:53 AM73 °FPartly sunny.12 mph88%30.01 "Hg10 mi
8:53 AM73 °FPartly sunny.14 mph84%30.01 "Hg10 mi
7:53 AM72 °FOvercast.16 mph84%30.04 "Hg10 mi
7:00 AM72 °FOvercast.16 mph84%30.03 "Hg10 mi
Weather by CustomWeather, © 2014

See weather overview